Location: Baix
(44.7118°N, 4.7648°E)
Time: 00:23:55
(UTC+00:00)

X-37B - Visible Passes

Search period start: 18 June 2021 00:00
Search period end: 28 June 2021 00:00
Orbit: 386 x 389 km, 45.0° (Epoch: 10 June)

Date Brightness Start Highest point End Pass type
(mag) Time Alt. Az. Time Alt. Az. Time Alt. Az.
18 Jun 1.5 00:48:20 40° E 00:48:20 40° E 00:50:32 10° E visible
18 Jun 0.5 02:20:50 10° W 02:24:02 87° N 02:27:13 10° E visible
19 Jun 0.6 01:24:37 40° W 01:25:39 82° N 01:28:50 10° E visible
19 Jun 0.6 02:59:08 10° W 03:02:16 57° SSW 03:05:23 10° ESE visible
20 Jun 2.2 00:28:46 28° E 00:28:46 28° E 00:30:27 10° E visible
20 Jun 0.4 02:01:04 12° W 02:03:56 78° SSW 02:07:06 10° ESE visible
21 Jun 0.5 01:05:32 86° NNW 01:05:33 87° N 01:08:45 10° E visible
21 Jun 1.1 02:39:06 10° W 02:42:05 38° SSW 02:45:03 10° SE visible
22 Jun 0.5 01:43:03 43° WSW 01:43:47 57° SSW 01:46:55 10° ESE visible
22 Jun 1.6 21:29:19 10° SW 21:31:22 30° SSW 21:31:22 30° SSW visible
23 Jun 1.7 02:22:08 24° SSW 02:22:08 24° SSW 02:24:28 10° SSE visible
23 Jun 1.7 20:31:25 10° SSW 20:34:03 24° SSE 20:36:41 10° E visible
23 Jun 0.5 22:07:15 10° WSW 22:10:09 69° SW 22:10:09 69° SW visible
24 Jun 0.6 21:08:58 10° WSW 21:12:05 57° SSE 21:15:11 10° E visible
24 Jun 1.8 22:45:31 10° W 22:47:29 34° W 22:47:29 34° W visible
25 Jun 1.1 20:10:50 10° SW 20:13:48 38° SSE 20:16:47 10° E visible
25 Jun 0.5 21:47:08 10° W 21:50:20 87° N 21:51:53 28° E visible
25 Jun 3.3 23:23:49 10° W 23:24:09 12° W 23:24:09 12° W visible
26 Jun 0.5 20:48:46 10° WSW 20:51:57 78° SSE 20:55:08 10° E visible
26 Jun 0.7 22:25:26 10° W 22:28:17 69° WNW 22:28:17 69° WNW visible
27 Jun 0.6 21:27:03 10° W 21:30:15 82° N 21:32:17 20° E visible
27 Jun 3.0 23:03:43 10° W 23:04:34 17° W 23:04:34 17° W visible
